CW8504 Weather Reports


Display with metric or nautical units.
time (UTC)temp
F
wind
direction
speed
MPH
gust
MPH
rain 1hr
in
rain 24hr
in
rain mn
in
humidity
%
barometer
mb
20260504030904 53 193 0.0 0.0 0.00 0.00 0.00 24 1013.3
20260504030404 53 193 0.0 0.0 0.00 0.00 0.00 21 1013.2
20260504025904 54 201 0.0 0.0 0.00 0.00 0.00 28 1013.2
20260504025404 55 201 0.0 0.0 0.00 0.00 0.00 26 1013.1
20260504024904 55 201 0.0 0.0 0.00 0.00 0.00 20 1013.1
20260504024404 56 202 0.0 0.0 0.00 0.00 0.00 18 1013.0
20260504023905 57 203 0.0 0.0 0.00 0.00 0.00 17 1013.1
20260504023404 58 236 0.0 0.0 0.00 0.00 0.00 18 1013.0
20260504022404 60 236 0.0 0.0 0.00 0.00 0.00 15 1012.9
20260504021904 61 236 0.0 0.0 0.00 0.00 0.00 14 1012.9
20260504021403 61 236 0.0 0.0 0.00 0.00 0.00 12 1012.8
20260504020904 61 236 0.0 0.0 0.00 0.00 0.00 12 1012.8
20260504020404 62 236 0.0 0.0 0.00 0.00 0.00 12 1012.8
20260504015904 63 236 0.0 0.0 0.00 0.00 0.00 10 1012.7
20260504014904 64 234 0.0 0.0 0.00 0.00 0.00 8 1012.8
20260504014404 65 229 0.0 0.0 0.00 0.00 0.00 6 1012.9
20260504013904 65 229 0.0 0.0 0.00 0.00 0.00 6 1012.8
20260504012904 67 237 0.0 2.0 0.00 0.00 0.00 6 1012.9
20260504012404 67 228 0.0 2.0 0.00 0.00 0.00 5 1012.8
20260504011404 68 232 2.0 10.0 0.00 0.00 0.00 4 1012.9
20260504010904 68 242 1.0 3.0 0.00 0.00 0.00 4 1013.0
20260504010404 69 223 1.0 3.0 0.00 0.00 0.00 5 1013.0
20260504005904 69 216 0.0 1.0 0.00 0.00 0.00 5 1013.0
20260504005405 69 217 0.0 3.0 0.00 0.00 0.00 4 1013.0
20260504004904 69 248 3.0 12.0 0.00 0.00 0.00 3 1013.0
20260504004404 69 215 0.0 6.0 0.00 0.00 0.00 4 1013.0
20260504003404 70 234 1.0 10.0 0.00 0.00 0.00 5 1013.0
20260504002904 70 249 1.0 3.0 0.00 0.00 0.00 4 1013.0
20260504002404 70 221 2.0 7.0 0.00 0.00 0.00 5 1013.0
20260504001904 70 209 2.0 8.0 0.00 0.00 0.00 7 1013.0
20260504000904 70 236 1.0 7.0 0.00 0.00 0.00 6 1013.1
20260504000404 70 244 2.0 7.0 0.00 0.00 0.00 6 1013.2
20260503235404 70 230 1.0 9.0 0.00 0.00 0.00 6 1013.2
20260503234904 70 229 6.0 12.0 0.00 0.00 0.00 6 1013.3
20260503233404 70 230 7.0 13.0 0.00 0.00 0.00 6 1013.2
20260503232404 70 257 1.0 12.0 0.00 0.00 0.00 7 1013.3
20260503231904 70 252 4.0 12.0 0.00 0.00 0.00 6 1013.3
20260503231404 70 231 2.0 14.0 0.00 0.00 0.00 6 1013.4
20260503230904 71 244 5.0 12.0 0.00 0.00 0.00 7 1013.5
20260503230404 71 236 5.0 12.0 0.00 0.00 0.00 7 1013.4
20260503225904 71 230 7.0 13.0 0.00 0.00 0.00 7 1013.5
20260503225404 71 248 1.0 10.0 0.00 0.00 0.00 6 1013.4
20260503224904 71 241 5.0 14.0 0.00 0.00 0.00 6 1013.3
20260503224404 71 229 5.0 13.0 0.00 0.00 0.00 6 1013.4
20260503223404 69 245 3.0 12.0 0.00 0.00 0.00 8 1013.5
20260503222904 68 224 2.0 12.0 0.00 0.00 0.00 9 1013.5
20260503222404 67 223 1.0 3.0 0.00 0.00 0.00 10 1013.7
20260503221904 66 218 5.0 9.0 0.00 0.00 0.00 9 1013.8
20260503221404 66 238 0.0 1.0 0.00 0.00 0.00 8 1013.8
20260503220404 67 129 0.0 1.0 0.00 0.00 0.00 8 1014.0
20260503215404 67 67 0.0 0.0 0.00 0.00 0.00 8 1014.1
20260503214904 66 67 0.0 0.0 0.00 0.00 0.00 7 1014.2
20260503214404 67 67 0.0 1.0 0.00 0.00 0.00 6 1014.2
20260503213904 67 69 0.0 2.0 0.00 0.00 0.00 7 1014.2
20260503212904 68 236 3.0 10.0 0.00 0.00 0.00 7 1014.3
20260503212404 69 254 0.0 8.0 0.00 0.00 0.00 6 1014.3
20260503211404 70 275 0.0 3.0 0.00 0.00 0.00 6 1014.4
20260503210905 70 141 0.0 2.0 0.00 0.00 0.00 4 1014.4
20260503210405 71 231 0.0 1.0 0.00 0.00 0.00 4 1014.4
20260503205904 71 235 5.0 12.0 0.00 0.00 0.00 6 1014.7
20260503205404 72 205 2.0 9.0 0.00 0.00 0.00 5 1014.5
20260503204904 71 217 2.0 6.0 0.00 0.00 0.00 6 1014.6
20260503203904 70 218 3.0 6.0 0.00 0.00 0.00 4 1014.8
20260503202904 70 224 1.0 12.0 0.00 0.00 0.00 4 1014.8
20260503202404 70 231 5.0 13.0 0.00 0.00 0.00 4 1015.0
20260503201904 70 224 4.0 12.0 0.00 0.00 0.00 6 1015.0
20260503201403 70 216 1.0 10.0 0.00 0.00 0.00 5 1015.0
20260503200907 69 200 5.0 12.0 0.00 0.00 0.00 6 1015.1
20260503200404 69 218 7.0 12.0 0.00 0.00 0.00 4 1015.1
20260503195904 69 199 8.0 16.0 0.00 0.00 0.00 6 1015.1
20260503195404 69 217 7.0 13.0 0.00 0.00 0.00 6 1015.2
20260503194904 69 221 6.0 14.0 0.00 0.00 0.00 6 1015.2
20260503193404 68 204 3.0 12.0 0.00 0.00 0.00 8 1015.3
20260503192904 67 255 2.0 6.0 0.00 0.00 0.00 11 1015.3
20260503192404 67 33 2.0 6.0 0.00 0.00 0.00 8 1015.4
20260503191904 68 254 5.0 14.0 0.00 0.00 0.00 8 1015.5
20260503191404 69 253 3.0 7.0 0.00 0.00 0.00 8 1015.5
20260503190904 69 314 0.0 3.0 0.00 0.00 0.00 10 1015.5
20260503185904 70 349 0.0 3.0 0.00 0.00 0.00 6 1015.7
20260503185403 70 0 2.0 6.0 0.00 0.00 0.00 4 1015.7
20260503184904 70 150 0.0 0.0 0.00 0.00 0.00 6 1015.8
20260503184404 69 150 0.0 1.0 0.00 0.00 0.00 4 1015.9
20260503183905 69 142 1.0 5.0 0.00 0.00 0.00 9 1016.0
20260503182904 68 226 3.0 7.0 0.00 0.00 0.00 10 1016.0
20260503182404 68 231 2.0 5.0 0.00 0.00 0.00 9 1016.1
20260503181904 68 178 1.0 5.0 0.00 0.00 0.00 9 1016.2
20260503180904 67 290 0.0 1.0 0.00 0.00 0.00 10 1016.4
20260503180411 67 290 0.0 0.0 0.00 0.00 0.00 12 1016.5
20260503175904 66 290 0.0 0.0 0.00 0.00 0.00 11 1016.5
20260503174403 65 301 0.0 0.0 0.00 0.00 0.00 12 1016.8
20260503173904 64 303 0.0 0.0 0.00 0.00 0.00 14 1016.9
20260503173404 64 327 0.0 2.0 0.00 0.00 0.00 15 1017.0
20260503172404 63 14 0.0 0.0 0.00 0.00 0.00 18 1017.1
20260503171904 62 15 0.0 0.0 0.00 0.00 0.00 21 1017.1
20260503171404 61 15 0.0 0.0 0.00 0.00 0.00 24 1017.1
20260503170904 60 16 0.0 0.0 0.00 0.00 0.00 25 1017.3
20260503170404 59 15 0.0 0.0 0.00 0.00 0.00 25 1017.3
20260503150904 44 32 0.0 0.0 0.00 0.00 0.00 49 1018.9
20260503131404 30 207 0.0 0.0 0.00 0.00 0.00 74 1019.7
20260503130904 29 207 0.0 0.0 0.00 0.00 0.00 73 1019.6
20260503130411 29 207 0.0 0.0 0.00 0.00 0.00 73 1019.5
20260503110404 30 208 0.0 0.0 0.00 0.00 0.00 69 1019.2
20260503090404 33 208 0.0 0.0 0.00 0.00 0.00 63 1018.7
20260503081403 34 208 0.0 0.0 0.00 0.00 0.00 61 1018.8
20260503080904 34 208 0.0 0.0 0.00 0.00 0.00 61 1018.8
20260503072904 35 208 0.0 0.0 0.00 0.00 0.00 58 1018.8
20260503072404 35 208 0.0 0.0 0.00 0.00 0.00 57 1018.8
20260503071904 36 208 0.0 0.0 0.00 0.00 0.00 57 1018.8
20260503071404 36 208 0.0 0.0 0.00 0.00 0.00 57 1018.8
20260503070904 36 208 0.0 0.0 0.00 0.00 0.00 57 1018.8
20260503070404 36 208 0.0 0.0 0.00 0.00 0.00 57 1018.8
20260503054904 40 208 0.0 0.0 0.00 0.00 0.00 52 1018.7
20260503054404 40 208 0.0 0.0 0.00 0.00 0.00 52 1018.7
20260503053904 41 208 0.0 0.0 0.00 0.00 0.00 53 1018.6
20260503052903 41 208 0.0 0.0 0.00 0.00 0.00 53 1018.6
20260503052404 41 208 0.0 0.0 0.00 0.00 0.00 52 1018.6
20260503050403 43 208 0.0 0.0 0.00 0.00 0.00 51 1018.6
20260503045904 43 208 0.0 0.0 0.00 0.00 0.00 51 1018.5
20260503044404 45 208 0.0 0.0 0.00 0.00 0.00 48 1018.6
20260503043907 45 208 0.0 0.0 0.00 0.00 0.00 47 1018.6
20260503043404 46 208 0.0 0.0 0.00 0.00 0.00 47 1018.6
20260503042405 47 208 0.0 0.0 0.00 0.00 0.00 45 1018.5
20260503041904 47 208 0.0 0.0 0.00 0.00 0.00 43 1018.6
20260503041404 47 208 0.0 0.0 0.00 0.00 0.00 42 1018.6
20260503035904 49 208 0.0 0.0 0.00 0.00 0.00 40 1018.6
20260503035404 50 208 0.0 0.0 0.00 0.00 0.00 41 1018.5
20260503034905 50 208 0.0 0.0 0.00 0.00 0.00 37 1018.5
20260503033904 51 208 0.0 0.0 0.00 0.00 0.00 37 1018.3
20260503033404 52 208 0.0 0.0 0.00 0.00 0.00 36 1018.2
20260503032904 52 208 0.0 0.0 0.00 0.00 0.00 34 1018.1
20260503032404 53 208 0.0 0.0 0.00 0.00 0.00 28 1018.1
20260503031404 54 208 0.0 0.0 0.00 0.00 0.00 27 1018.0